Time,TemperatureF,DewpointF,PressureIn,WindDirection,WindDirectionDegrees,WindSpeedMPH,WindSpeedGustMPH,Humidity,HourlyPrecipIn,Conditions,Clouds,dailyrainin,SoftwareType,DateUTC
2013-03-27 00:00:00,31.3,24.0,29.44,North,0,0.0,0.0,74,0.00,,---,0.00,VWS V14.00,2013-03-27 05:00:00,
2013-03-27 00:03:00,31.3,24.0,29.44,North,0,0.0,0.0,74,0.00,,---,0.00,VWS V14.00,2013-03-27 05:03:00,
2013-03-27 00:05:00,31.3,24.0,29.44,North,0,0.0,0.0,74,0.00,,---,0.00,VWS V14.00,2013-03-27 05:05:00,
2013-03-27 00:06:00,31.3,24.0,29.44,North,0,0.0,0.0,74,0.00,,---,0.00,VWS V14.00,2013-03-27 05:06:00,
2013-03-27 00:09:00,31.1,23.8,29.44,North,0,0.0,0.0,74,0.00,,---,0.00,VWS V14.00,2013-03-27 05:09:00,
2013-03-27 00:12:00,31.1,23.8,29.44,North,0,0.0,0.0,74,0.00,,---,0.00,VWS V14.00,2013-03-27 05:12:00,
2013-03-27 00:18:00,31.1,23.8,29.44,North,0,0.0,0.0,74,0.00,,---,0.00,VWS V14.00,2013-03-27 05:18:00,
2013-03-27 00:20:00,31.1,23.8,29.44,North,0,0.0,0.0,74,0.00,,---,0.00,VWS V14.00,2013-03-27 05:20:00,
2013-03-27 00:28:00,31.1,23.8,29.44,North,0,0.0,0.0,74,0.00,,---,0.00,VWS V14.00,2013-03-27 05:28:00,
2013-03-27 00:34:00,31.3,24.0,29.44,North,0,0.0,0.0,74,0.00,,---,0.00,VWS V14.00,2013-03-27 05:34:00,
2013-03-27 00:37:00,31.1,24.1,29.44,North,0,0.0,0.0,75,0.00,,---,0.00,VWS V14.00,2013-03-27 05:37:00,
2013-03-27 00:43:00,30.9,23.9,29.44,North,0,0.0,0.0,75,0.00,,---,0.00,VWS V14.00,2013-03-27 05:43:00,
2013-03-27 00:46:00,30.9,23.9,29.44,North,0,0.0,0.0,75,0.00,,---,0.00,VWS V14.00,2013-03-27 05:46:00,
2013-03-27 00:49:00,30.5,23.9,29.44,North,0,0.0,0.0,76,0.00,,---,0.00,VWS V14.00,2013-03-27 05:49:00,
2013-03-27 00:52:00,30.5,23.9,29.44,North,0,0.0,0.0,76,0.00,,---,0.00,VWS V14.00,2013-03-27 05:52:00,
2013-03-27 00:55:00,30.5,23.9,29.44,North,10,0.0,0.0,76,0.00,,---,0.00,VWS V14.00,2013-03-27 05:55:00,
2013-03-27 01:01:00,30.4,23.7,29.44,North,11,0.0,0.0,76,0.00,,---,0.00,VWS V14.00,2013-03-27 06:01:00,
2013-03-27 01:04:00,30.2,23.5,29.44,North,11,0.0,0.0,76,0.00,,---,0.00,VWS V14.00,2013-03-27 06:04:00,
2013-03-27 01:05:00,30.2,23.5,29.44,North,11,0.0,0.0,76,0.00,,---,0.00,VWS V14.00,2013-03-27 06:05:00,
2013-03-27 01:10:00,30.2,23.5,29.44,North,11,0.0,0.0,76,0.00,,---,0.00,VWS V14.00,2013-03-27 06:10:00,
2013-03-27 01:13:00,30.0,23.7,29.44,North,11,0.0,0.0,77,0.00,,---,0.00,VWS V14.00,2013-03-27 06:13:00,
2013-03-27 01:16:00,29.8,23.5,29.44,North,11,0.0,0.0,77,0.00,,---,0.00,VWS V14.00,2013-03-27 06:16:00,
2013-03-27 01:19:00,29.8,23.5,29.44,North,11,0.0,0.0,77,0.00,,---,0.00,VWS V14.00,2013-03-27 06:19:00,
2013-03-27 01:22:00,29.5,23.1,29.44,North,11,0.0,0.0,77,0.00,,---,0.00,VWS V14.00,2013-03-27 06:22:00,
2013-03-27 01:25:00,29.3,23.0,29.44,North,11,0.0,0.0,77,0.00,,---,0.00,VWS V14.00,2013-03-27 06:25:00,
2013-03-27 01:28:00,29.1,22.8,29.44,North,11,0.0,0.0,77,0.00,,---,0.00,VWS V14.00,2013-03-27 06:28:00,
2013-03-27 01:31:00,29.1,22.8,29.44,North,11,0.0,0.0,77,0.00,,---,0.00,VWS V14.00,2013-03-27 06:31:00,
2013-03-27 01:34:00,28.9,22.6,29.44,North,11,0.0,0.0,77,0.00,,---,0.00,VWS V14.00,2013-03-27 06:34:00,
2013-03-27 01:37:00,28.9,22.9,29.44,North,11,0.0,0.0,78,0.00,,---,0.00,VWS V14.00,2013-03-27 06:37:00,
2013-03-27 01:40:00,28.9,22.9,29.44,North,11,0.0,0.0,78,0.00,,---,0.00,VWS V14.00,2013-03-27 06:40:00,
2013-03-27 01:43:00,28.9,22.9,29.44,North,11,0.0,0.0,78,0.00,,---,0.00,VWS V14.00,2013-03-27 06:43:00,
2013-03-27 01:49:00,28.7,22.8,29.44,North,11,0.0,0.0,78,0.00,,---,0.00,VWS V14.00,2013-03-27 06:49:00,
2013-03-27 01:50:00,28.7,22.8,29.44,North,11,0.0,0.0,78,0.00,,---,0.00,VWS V14.00,2013-03-27 06:50:00,
2013-03-27 01:55:00,28.6,22.6,29.44,North,11,0.0,0.0,78,0.00,,---,0.00,VWS V14.00,2013-03-27 06:55:00,
2013-03-27 01:58:00,28.6,22.9,29.44,North,11,0.0,0.0,79,0.00,,---,0.00,VWS V14.00,2013-03-27 06:58:00,
2013-03-27 02:04:00,28.6,22.9,29.44,North,11,0.0,0.0,79,0.00,,---,0.00,VWS V14.00,2013-03-27 07:04:00,
2013-03-27 02:05:00,28.6,22.9,29.44,North,11,0.0,0.0,79,0.00,,---,0.00,VWS V14.00,2013-03-27 07:05:00,
2013-03-27 02:07:00,28.4,22.7,29.44,North,11,0.0,0.0,79,0.00,,---,0.00,VWS V14.00,2013-03-27 07:07:00,
2013-03-27 02:14:00,28.4,22.7,29.44,North,11,0.0,0.0,79,0.00,,---,0.00,VWS V14.00,2013-03-27 07:14:00,
2013-03-27 02:20:00,28.2,22.5,29.44,North,11,0.0,0.0,79,0.00,,---,0.00,VWS V14.00,2013-03-27 07:20:00,
2013-03-27 02:23:00,28.2,22.5,29.44,North,11,0.0,0.0,79,0.00,,---,0.00,VWS V14.00,2013-03-27 07:23:00,
2013-03-27 02:26:00,28.2,22.5,29.44,North,11,0.0,0.0,79,0.00,,---,0.00,VWS V14.00,2013-03-27 07:26:00,
2013-03-27 02:32:00,28.2,22.5,29.44,North,11,0.0,0.0,79,0.00,,---,0.00,VWS V14.00,2013-03-27 07:32:00,
2013-03-27 02:35:00,28.2,22.8,29.44,North,11,0.0,0.0,80,0.00,,---,0.00,VWS V14.00,2013-03-27 07:35:00,
2013-03-27 02:41:00,28.2,22.8,29.44,North,11,0.0,0.0,80,0.00,,---,0.00,VWS V14.00,2013-03-27 07:41:00,
2013-03-27 02:44:00,28.4,22.7,29.44,North,11,0.0,0.0,79,0.00,,---,0.00,VWS V14.00,2013-03-27 07:44:00,
2013-03-27 02:47:00,28.2,22.8,29.44,North,11,0.0,0.0,80,0.00,,---,0.00,VWS V14.00,2013-03-27 07:47:00,
2013-03-27 02:50:00,28.2,22.8,29.44,North,11,0.0,0.0,80,0.00,,---,0.00,VWS V14.00,2013-03-27 07:50:00,
2013-03-27 02:53:00,28.2,22.8,29.44,North,11,0.0,0.0,80,0.00,,---,0.00,VWS V14.00,2013-03-27 07:53:00,
2013-03-27 02:56:00,28.0,22.7,29.44,North,11,0.0,0.0,80,0.00,,---,0.00,VWS V14.00,2013-03-27 07:56:00,
2013-03-27 03:02:00,27.8,22.5,29.44,North,11,0.0,0.0,80,0.00,,---,0.00,VWS V14.00,2013-03-27 08:02:00,
2013-03-27 03:05:00,27.8,22.5,29.44,North,11,0.0,0.0,80,0.00,,---,0.00,VWS V14.00,2013-03-27 08:05:00,
2013-03-27 03:08:00,27.8,22.2,29.44,North,11,0.0,0.0,79,0.00,,---,0.00,VWS V14.00,2013-03-27 08:08:00,
2013-03-27 03:11:00,27.8,22.2,29.44,North,11,0.0,0.0,79,0.00,,---,0.00,VWS V14.00,2013-03-27 08:11:00,
2013-03-27 03:14:00,27.7,22.0,29.44,North,11,0.0,0.0,79,0.00,,---,0.00,VWS V14.00,2013-03-27 08:14:00,
2013-03-27 03:17:00,27.5,21.5,29.44,North,11,0.0,0.0,78,0.00,,---,0.00,VWS V14.00,2013-03-27 08:17:00,
2013-03-27 03:20:00,27.5,21.5,29.44,North,11,0.0,0.0,78,0.00,,---,0.00,VWS V14.00,2013-03-27 08:20:00,
2013-03-27 03:23:00,27.1,20.9,29.44,North,11,0.0,0.0,77,0.00,,---,0.00,VWS V14.00,2013-03-27 08:23:00,
2013-03-27 03:26:00,27.1,20.9,29.44,North,11,0.0,0.0,77,0.00,,---,0.00,VWS V14.00,2013-03-27 08:26:00,
2013-03-27 03:32:00,27.1,21.2,29.44,North,11,0.0,0.0,78,0.00,,---,0.00,VWS V14.00,2013-03-27 08:32:00,
2013-03-27 03:35:00,27.1,21.2,29.44,North,11,0.0,0.0,78,0.00,,---,0.00,VWS V14.00,2013-03-27 08:35:00,
2013-03-27 03:38:00,26.9,21.0,29.44,North,11,0.0,0.0,78,0.00,,---,0.00,VWS V14.00,2013-03-27 08:38:00,
2013-03-27 03:44:00,26.9,21.3,29.44,North,11,0.0,0.0,79,0.00,,---,0.00,VWS V14.00,2013-03-27 08:44:00,
2013-03-27 03:47:00,26.9,21.3,29.44,North,11,0.0,0.0,79,0.00,,---,0.00,VWS V14.00,2013-03-27 08:47:00,
2013-03-27 03:50:00,26.9,21.3,29.44,North,11,0.0,0.0,79,0.00,,---,0.00,VWS V14.00,2013-03-27 08:50:00,
2013-03-27 03:53:00,26.9,21.6,29.44,North,11,0.0,0.0,80,0.00,,---,0.00,VWS V14.00,2013-03-27 08:53:00,
2013-03-27 03:59:00,27.1,21.8,29.44,North,11,0.0,0.0,80,0.00,,---,0.00,VWS V14.00,2013-03-27 08:59:00,
2013-03-27 04:02:00,27.3,22.2,29.44,North,11,0.0,0.0,81,0.00,,---,0.00,VWS V14.00,2013-03-27 09:02:00,
2013-03-27 04:05:00,27.3,22.2,29.44,North,11,0.0,0.0,81,0.00,,---,0.00,VWS V14.00,2013-03-27 09:05:00,
2013-03-27 04:08:00,27.1,21.8,29.44,North,11,0.0,0.0,80,0.00,,---,0.00,VWS V14.00,2013-03-27 09:08:00,
2013-03-27 04:11:00,26.9,21.6,29.44,North,11,0.0,0.0,80,0.00,,---,0.00,VWS V14.00,2013-03-27 09:11:00,
2013-03-27 04:14:00,26.9,21.6,29.44,North,11,0.0,0.0,80,0.00,,---,0.00,VWS V14.00,2013-03-27 09:14:00,
2013-03-27 04:17:00,26.9,21.6,29.44,North,11,0.0,0.0,80,0.00,,---,0.00,VWS V14.00,2013-03-27 09:17:00,
2013-03-27 04:23:00,27.1,21.8,29.44,North,11,0.0,0.0,80,0.00,,---,0.00,VWS V14.00,2013-03-27 09:23:00,
2013-03-27 04:29:00,27.1,21.8,29.44,North,11,0.0,0.0,80,0.00,,---,0.00,VWS V14.00,2013-03-27 09:29:00,
2013-03-27 04:32:00,27.1,22.1,29.44,North,11,0.0,0.0,81,0.00,,---,0.00,VWS V14.00,2013-03-27 09:32:00,
2013-03-27 04:35:00,26.9,21.9,29.44,North,11,0.0,0.0,81,0.00,,---,0.00,VWS V14.00,2013-03-27 09:35:00,
2013-03-27 04:38:00,26.9,21.9,29.44,North,11,0.0,0.0,81,0.00,,---,0.00,VWS V14.00,2013-03-27 09:38:00,
2013-03-27 04:44:00,26.9,22.2,29.44,North,11,0.0,0.0,82,0.00,,---,0.00,VWS V14.00,2013-03-27 09:44:00,
2013-03-27 04:47:00,26.9,22.2,29.44,North,11,0.0,0.0,82,0.00,,---,0.00,VWS V14.00,2013-03-27 09:47:00,
2013-03-27 04:50:00,26.9,22.2,29.44,North,11,0.0,0.0,82,0.00,,---,0.00,VWS V14.00,2013-03-27 09:50:00,
2013-03-27 04:53:00,26.8,22.0,29.44,North,11,0.0,0.0,82,0.00,,---,0.00,VWS V14.00,2013-03-27 09:53:00,
2013-03-27 04:59:00,26.8,21.7,29.44,North,11,0.0,0.0,81,0.00,,---,0.00,VWS V14.00,2013-03-27 09:59:00,
2013-03-27 05:02:00,26.6,21.2,29.44,North,11,0.0,0.0,80,0.00,,---,0.00,VWS V14.00,2013-03-27 10:02:00,
2013-03-27 05:05:00,26.6,21.2,29.44,North,11,0.0,0.0,80,0.00,,---,0.00,VWS V14.00,2013-03-27 10:05:00,
2013-03-27 05:08:00,26.6,21.0,29.44,North,11,0.0,0.0,79,0.00,,---,0.00,VWS V14.00,2013-03-27 10:08:00,
2013-03-27 05:12:00,26.8,21.4,29.44,North,11,0.0,0.0,80,0.00,,---,0.00,VWS V14.00,2013-03-27 10:12:00,
2013-03-27 05:15:00,26.9,21.6,29.44,North,11,0.0,0.0,80,0.00,,---,0.00,VWS V14.00,2013-03-27 10:15:00,
2013-03-27 05:20:00,26.8,21.4,29.44,North,11,0.0,0.0,80,0.00,,---,0.00,VWS V14.00,2013-03-27 10:20:00,
2013-03-27 05:21:00,26.8,21.4,29.44,North,11,0.0,0.0,80,0.00,,---,0.00,VWS V14.00,2013-03-27 10:21:00,
2013-03-27 05:27:00,26.8,21.4,29.44,North,11,0.0,0.0,80,0.00,,---,0.00,VWS V14.00,2013-03-27 10:27:00,
2013-03-27 05:30:00,26.6,21.2,29.44,North,11,0.0,0.0,80,0.00,,---,0.00,VWS V14.00,2013-03-27 10:30:00,
2013-03-27 05:33:00,26.6,21.2,29.44,North,11,0.0,0.0,80,0.00,,---,0.00,VWS V14.00,2013-03-27 10:33:00,
2013-03-27 05:35:00,26.6,21.5,29.44,North,11,0.0,0.0,81,0.00,,---,0.00,VWS V14.00,2013-03-27 10:35:00,
2013-03-27 05:42:00,26.8,21.7,29.44,North,11,0.0,0.0,81,0.00,,---,0.00,VWS V14.00,2013-03-27 10:42:00,
2013-03-27 05:45:00,26.8,22.0,29.44,North,11,0.0,0.0,82,0.00,,---,0.00,VWS V14.00,2013-03-27 10:45:00,
2013-03-27 05:48:00,26.8,22.0,29.44,North,11,0.0,0.0,82,0.00,,---,0.00,VWS V14.00,2013-03-27 10:48:00,
2013-03-27 05:51:00,26.8,22.0,29.44,North,11,0.0,0.0,82,0.00,,---,0.00,VWS V14.00,2013-03-27 10:51:00,
2013-03-27 05:54:00,26.8,22.0,29.44,North,11,0.0,0.0,82,0.00,,---,0.00,VWS V14.00,2013-03-27 10:54:00,
2013-03-27 05:57:00,26.8,22.0,29.44,North,11,0.0,0.0,82,0.00,,---,0.00,VWS V14.00,2013-03-27 10:57:00,
2013-03-27 06:00:00,26.8,22.0,29.44,North,11,0.0,0.0,82,0.00,,---,0.00,VWS V14.00,2013-03-27 11:00:00,
2013-03-27 06:05:00,26.6,21.2,29.44,North,11,0.0,0.0,80,0.00,,---,0.00,VWS V14.00,2013-03-27 11:05:00,
2013-03-27 06:09:00,26.6,21.2,29.44,North,11,0.0,0.0,80,0.00,,---,0.00,VWS V14.00,2013-03-27 11:09:00,
2013-03-27 06:12:00,26.4,20.8,29.44,North,11,0.0,0.0,79,0.00,,---,0.00,VWS V14.00,2013-03-27 11:12:00,
2013-03-27 06:15:00,26.4,20.8,29.44,North,11,0.0,0.0,79,0.00,,---,0.00,VWS V14.00,2013-03-27 11:15:00,
2013-03-27 06:18:00,26.2,20.6,29.44,North,11,0.0,0.0,79,0.00,,---,0.00,VWS V14.00,2013-03-27 11:18:00,
2013-03-27 06:20:00,26.2,20.6,29.44,North,11,0.0,0.0,79,0.00,,---,0.00,VWS V14.00,2013-03-27 11:20:00,
2013-03-27 06:21:00,26.2,20.6,29.44,North,11,0.0,0.0,79,0.00,,---,0.00,VWS V14.00,2013-03-27 11:21:00,
2013-03-27 06:27:00,27.1,21.5,29.44,North,11,0.0,0.0,79,0.00,,---,0.00,VWS V14.00,2013-03-27 11:27:00,
2013-03-27 06:30:00,27.3,21.7,29.44,North,11,0.0,0.0,79,0.00,,---,0.00,VWS V14.00,2013-03-27 11:30:00,
2013-03-27 06:33:00,27.5,21.5,29.44,North,11,0.0,0.0,78,0.00,,---,0.00,VWS V14.00,2013-03-27 11:33:00,
2013-03-27 06:35:00,27.7,21.7,29.44,North,11,0.0,0.0,78,0.00,,---,0.00,VWS V14.00,2013-03-27 11:35:00,
2013-03-27 06:39:00,27.8,21.9,29.44,North,11,0.0,0.0,78,0.00,,---,0.00,VWS V14.00,2013-03-27 11:39:00,
2013-03-27 06:42:00,27.8,21.6,29.44,North,11,0.0,0.0,77,0.00,,---,0.00,VWS V14.00,2013-03-27 11:42:00,
2013-03-27 06:45:00,27.8,21.6,29.44,North,11,0.0,0.0,77,0.00,,---,0.00,VWS V14.00,2013-03-27 11:45:00,
2013-03-27 06:50:00,27.8,21.6,29.44,North,11,0.0,0.0,77,0.00,,---,0.00,VWS V14.00,2013-03-27 11:50:00,
2013-03-27 06:55:00,27.8,21.6,29.44,North,11,0.0,0.0,77,0.00,,---,0.00,VWS V14.00,2013-03-27 11:55:00,
2013-03-27 06:58:00,27.7,21.4,29.44,North,11,0.0,0.0,77,0.00,,---,0.00,VWS V14.00,2013-03-27 11:58:00,
2013-03-27 07:01:00,27.7,21.4,29.44,North,11,0.0,0.0,77,0.00,,---,0.00,VWS V14.00,2013-03-27 12:01:00,
2013-03-27 07:04:00,27.7,21.4,29.44,North,11,0.0,0.0,77,0.00,,---,0.00,VWS V14.00,2013-03-27 12:04:00,
2013-03-27 07:07:00,27.7,21.4,29.44,North,11,0.0,0.0,77,0.00,,---,0.00,VWS V14.00,2013-03-27 12:07:00,
2013-03-27 07:10:00,27.7,21.4,29.44,North,11,0.0,0.0,77,0.00,,---,0.00,VWS V14.00,2013-03-27 12:10:00,
2013-03-27 07:16:00,27.7,21.4,29.44,North,11,0.0,0.0,77,0.00,,---,0.00,VWS V14.00,2013-03-27 12:16:00,
2013-03-27 07:19:00,27.7,21.4,29.44,North,11,0.0,0.0,77,0.00,,---,0.00,VWS V14.00,2013-03-27 12:19:00,
2013-03-27 07:20:00,27.7,21.4,29.44,North,11,0.0,0.0,77,0.00,,---,0.00,VWS V14.00,2013-03-27 12:20:00,
2013-03-27 07:22:00,27.7,21.4,29.44,North,11,0.0,0.0,77,0.00,,---,0.00,VWS V14.00,2013-03-27 12:22:00,
2013-03-27 07:25:00,27.5,20.0,29.44,North,11,0.0,0.0,73,0.00,,---,0.00,VWS V14.00,2013-03-27 12:25:00,
2013-03-27 07:31:00,27.5,19.6,29.44,North,11,0.0,0.0,72,0.00,,---,0.00,VWS V14.00,2013-03-27 12:31:00,
2013-03-27 07:34:00,27.5,19.6,29.44,North,11,0.0,0.0,72,0.00,,---,0.00,VWS V14.00,2013-03-27 12:34:00,
2013-03-27 07:35:00,27.5,19.6,29.44,North,11,0.0,0.0,72,0.00,,---,0.00,VWS V14.00,2013-03-27 12:35:00,
2013-03-27 07:37:00,27.5,19.6,29.44,North,11,0.0,0.0,72,0.00,,---,0.00,VWS V14.00,2013-03-27 12:37:00,
2013-03-27 07:40:00,27.5,19.6,29.44,North,10,0.0,0.0,72,0.00,,---,0.00,VWS V14.00,2013-03-27 12:40:00,
2013-03-27 07:43:00,27.5,19.6,29.44,North,11,0.0,0.0,72,0.00,,---,0.00,VWS V14.00,2013-03-27 12:43:00,
2013-03-27 07:46:00,27.5,19.6,29.44,North,11,0.0,0.0,72,0.00,,---,0.00,VWS V14.00,2013-03-27 12:46:00,
2013-03-27 07:49:00,27.5,19.6,29.47,North,11,0.0,0.0,72,0.00,,---,0.00,VWS V14.00,2013-03-27 12:49:00,
2013-03-27 07:50:00,27.5,19.6,29.47,North,11,0.0,0.0,72,0.00,,---,0.00,VWS V14.00,2013-03-27 12:50:00,
2013-03-27 07:52:00,27.5,19.6,29.47,North,11,0.0,0.0,72,0.00,,---,0.00,VWS V14.00,2013-03-27 12:52:00,
2013-03-27 07:55:00,29.5,21.9,29.47,North,11,0.0,0.0,73,0.00,,---,0.00,VWS V14.00,2013-03-27 12:55:00,
2013-03-27 07:58:00,29.5,21.9,29.47,North,11,0.0,0.0,73,0.00,,---,0.00,VWS V14.00,2013-03-27 12:58:00,
2013-03-27 08:04:00,29.8,22.6,29.47,North,11,0.0,0.0,74,0.00,,---,0.00,VWS V14.00,2013-03-27 13:04:00,
2013-03-27 08:05:00,29.8,22.6,29.47,NNE,30,0.0,0.0,74,0.00,,---,0.00,VWS V14.00,2013-03-27 13:05:00,
2013-03-27 08:07:00,29.8,22.6,29.47,NNE,30,0.0,0.0,74,0.00,,---,0.00,VWS V14.00,2013-03-27 13:07:00,
2013-03-27 08:13:00,30.7,23.4,29.47,SE,128,0.0,0.0,74,0.00,,---,0.00,VWS V14.00,2013-03-27 13:13:00,
2013-03-27 08:19:00,31.4,23.8,29.47,SSE,159,2.7,2.7,73,0.00,,---,0.00,VWS V14.00,2013-03-27 13:19:00,
2013-03-27 08:20:00,31.4,23.8,29.47,SSE,159,2.7,2.7,73,0.00,,---,0.00,VWS V14.00,2013-03-27 13:20:00,
2013-03-27 08:22:00,31.4,23.8,29.47,SSE,159,2.7,2.7,73,0.00,,---,0.00,VWS V14.00,2013-03-27 13:22:00,
2013-03-27 08:28:00,32.3,24.0,29.47,SE,146,0.0,2.7,71,0.00,,---,0.00,VWS V14.00,2013-03-27 13:28:00,
2013-03-27 08:35:00,32.3,24.0,29.47,SSE,156,2.7,3.1,71,0.00,,---,0.00,VWS V14.00,2013-03-27 13:35:00,
2013-03-27 08:38:00,32.3,23.7,29.47,SSE,156,2.2,3.6,70,0.00,,---,0.00,VWS V14.00,2013-03-27 13:38:00,
2013-03-27 08:41:00,32.3,23.7,29.47,SSE,156,3.1,3.6,70,0.00,,---,0.00,VWS V14.00,2013-03-27 13:41:00,
2013-03-27 08:44:00,32.3,23.7,29.47,ESE,105,2.7,3.6,70,0.00,,---,0.00,VWS V14.00,2013-03-27 13:44:00,
2013-03-27 08:47:00,32.3,23.7,29.47,ESE,104,0.0,3.6,70,0.00,,---,0.00,VWS V14.00,2013-03-27 13:47:00,
2013-03-27 08:53:00,32.3,23.7,29.47,SSE,161,2.2,3.1,70,0.00,,---,0.00,VWS V14.00,2013-03-27 13:53:00,
2013-03-27 08:56:00,32.3,23.7,29.47,SSE,164,2.7,4.0,70,0.00,,---,0.00,VWS V14.00,2013-03-27 13:56:00,
2013-03-27 09:02:00,34.0,24.5,29.47,South,178,3.6,4.0,68,0.00,,---,0.00,VWS V14.00,2013-03-27 14:02:00,
2013-03-27 09:05:00,34.0,24.5,29.47,SSE,165,2.7,4.0,68,0.00,,---,0.00,VWS V14.00,2013-03-27 14:05:00,
2013-03-27 09:14:00,34.0,24.5,29.47,South,170,4.5,5.4,68,0.00,,---,0.00,VWS V14.00,2013-03-27 14:14:00,
2013-03-27 09:17:00,34.0,24.5,29.47,SSE,150,4.9,5.4,68,0.00,,---,0.00,VWS V14.00,2013-03-27 14:17:00,
2013-03-27 09:20:00,34.0,24.5,29.47,SSE,165,5.4,5.4,68,0.00,,---,0.00,VWS V14.00,2013-03-27 14:20:00,
2013-03-27 09:26:00,34.0,24.5,29.47,South,178,5.4,5.4,68,0.00,,---,0.00,VWS V14.00,2013-03-27 14:26:00,
2013-03-27 09:29:00,34.0,24.5,29.47,SSE,165,5.4,5.4,68,0.00,,---,0.00,VWS V14.00,2013-03-27 14:29:00,
2013-03-27 09:35:00,34.0,24.5,29.47,SSE,165,4.0,5.4,68,0.00,,---,0.00,VWS V14.00,2013-03-27 14:35:00,
2013-03-27 09:38:00,34.0,24.5,29.47,South,172,5.4,5.4,68,0.00,,---,0.00,VWS V14.00,2013-03-27 14:38:00,
2013-03-27 09:44:00,34.0,24.5,29.47,SSE,167,4.9,5.4,68,0.00,,---,0.00,VWS V14.00,2013-03-27 14:44:00,
2013-03-27 09:47:00,34.0,24.5,29.47,SSE,165,4.0,5.4,68,0.00,,---,0.00,VWS V14.00,2013-03-27 14:47:00,
2013-03-27 09:53:00,34.0,24.5,29.47,South,169,4.9,5.4,68,0.00,,---,0.00,VWS V14.00,2013-03-27 14:53:00,
2013-03-27 09:56:00,34.0,24.5,29.47,South,172,4.9,5.4,68,0.00,,---,0.00,VWS V14.00,2013-03-27 14:56:00,
2013-03-27 09:59:00,34.0,24.5,29.47,South,172,4.9,5.4,68,0.00,,---,0.00,VWS V14.00,2013-03-27 14:59:00,
2013-03-27 10:05:00,34.0,24.5,29.47,SSE,159,3.6,5.4,68,0.00,,---,0.00,VWS V14.00,2013-03-27 15:05:00,
2013-03-27 10:08:00,34.0,24.5,29.47,SSE,160,3.6,4.0,68,0.00,,---,0.00,VWS V14.00,2013-03-27 15:08:00,
2013-03-27 10:11:00,34.0,24.5,29.47,SSE,147,4.0,4.0,68,0.00,,---,0.00,VWS V14.00,2013-03-27 15:11:00,
2013-03-27 10:14:00,34.0,24.5,29.47,South,169,4.5,5.4,68,0.00,,---,0.00,VWS V14.00,2013-03-27 15:14:00,
2013-03-27 10:17:00,34.0,24.5,29.47,South,169,5.4,5.4,68,0.00,,---,0.00,VWS V14.00,2013-03-27 15:17:00,
2013-03-27 10:20:00,34.0,24.5,29.47,SSE,165,5.4,5.4,68,0.00,,---,0.00,VWS V14.00,2013-03-27 15:20:00,
2013-03-27 10:26:00,41.9,26.5,29.47,SSE,165,5.4,5.4,54,0.00,,---,0.00,VWS V14.00,2013-03-27 15:26:00,
2013-03-27 10:29:00,41.9,26.5,29.47,SSE,148,4.0,5.4,54,0.00,,---,0.00,VWS V14.00,2013-03-27 15:29:00,
2013-03-27 10:32:00,41.9,26.5,29.47,SSE,154,3.6,5.4,54,0.00,,---,0.00,VWS V14.00,2013-03-27 15:32:00,
2013-03-27 10:35:00,41.9,26.5,29.47,SSE,161,3.6,5.4,54,0.00,,---,0.00,VWS V14.00,2013-03-27 15:35:00,
2013-03-27 10:38:00,41.9,26.5,29.47,SSE,157,4.0,4.0,54,0.00,,---,0.00,VWS V14.00,2013-03-27 15:38:00,
2013-03-27 10:41:00,41.9,26.5,29.47,SSE,157,4.0,4.0,54,0.00,,---,0.00,VWS V14.00,2013-03-27 15:41:00,
2013-03-27 10:47:00,43.7,26.8,29.47,SSE,166,5.4,5.8,51,0.00,,---,0.00,VWS V14.00,2013-03-27 15:47:00,
2013-03-27 10:50:00,43.7,26.8,29.47,SSE,162,4.0,6.3,51,0.00,,---,0.00,VWS V14.00,2013-03-27 15:50:00,
2013-03-27 11:00:00,43.7,26.8,29.47,SSE,165,5.4,5.4,51,0.00,,---,0.00,VWS V14.00,2013-03-27 16:00:00,
2013-03-27 11:05:00,43.7,26.8,29.47,South,170,5.4,5.4,51,0.00,,---,0.00,VWS V14.00,2013-03-27 16:05:00,
2013-03-27 11:06:00,43.7,26.8,29.47,South,179,5.8,5.8,51,0.00,,---,0.00,VWS V14.00,2013-03-27 16:06:00,
2013-03-27 11:09:00,43.7,26.8,29.47,SE,138,5.8,5.8,51,0.00,,---,0.00,VWS V14.00,2013-03-27 16:09:00,
2013-03-27 11:12:00,43.7,26.8,29.47,SSE,151,5.4,5.8,51,0.00,,---,0.00,VWS V14.00,2013-03-27 16:12:00,
2013-03-27 11:18:00,43.7,26.8,29.47,SSE,162,4.9,5.8,51,0.00,,---,0.00,VWS V14.00,2013-03-27 16:18:00,
2013-03-27 11:21:00,43.7,26.8,29.47,SSE,151,4.0,7.6,51,0.00,,---,0.00,VWS V14.00,2013-03-27 16:21:00,
2013-03-27 11:24:00,47.5,28.8,29.47,SSE,151,4.0,7.6,48,0.00,,---,0.00,VWS V14.00,2013-03-27 16:24:00,
2013-03-27 11:27:00,47.5,28.8,29.47,South,183,5.4,7.6,48,0.00,,---,0.00,VWS V14.00,2013-03-27 16:27:00,
2013-03-27 11:30:00,47.5,28.8,29.47,South,169,6.3,7.6,48,0.00,,---,0.00,VWS V14.00,2013-03-27 16:30:00,
2013-03-27 11:33:00,48.0,28.8,29.47,SSE,167,6.3,7.6,47,0.00,,---,0.00,VWS V14.00,2013-03-27 16:33:00,
2013-03-27 11:35:00,48.0,28.8,29.47,South,179,5.4,7.6,47,0.00,,---,0.00,VWS V14.00,2013-03-27 16:35:00,
2013-03-27 11:39:00,48.2,28.4,29.47,SE,139,5.4,7.6,46,0.00,,---,0.00,VWS V14.00,2013-03-27 16:39:00,
2013-03-27 11:45:00,48.2,28.4,29.47,SSE,158,3.6,7.6,46,0.00,,---,0.00,VWS V14.00,2013-03-27 16:45:00,
2013-03-27 11:48:00,48.2,28.4,29.47,SE,143,3.6,7.6,46,0.00,,---,0.00,VWS V14.00,2013-03-27 16:48:00,
2013-03-27 11:50:00,48.2,28.4,29.47,SE,143,3.6,7.6,46,0.00,,---,0.00,VWS V14.00,2013-03-27 16:50:00,
2013-03-27 11:54:00,48.2,28.4,29.47,SE,137,5.8,5.8,46,0.00,,---,0.00,VWS V14.00,2013-03-27 16:54:00,
2013-03-27 11:57:00,48.2,28.4,29.47,South,169,6.3,6.3,46,0.00,,---,0.00,VWS V14.00,2013-03-27 16:57:00,
2013-03-27 12:03:00,48.2,28.4,29.44,SSE,163,5.4,7.6,46,0.00,,---,0.00,VWS V14.00,2013-03-27 17:03:00,
2013-03-27 12:05:00,48.2,28.4,29.44,SSE,163,5.4,7.6,46,0.00,,---,0.00,VWS V14.00,2013-03-27 17:05:00,
2013-03-27 12:12:00,50.7,29.0,29.44,SSE,162,5.4,6.3,43,0.00,,---,0.00,VWS V14.00,2013-03-27 17:12:00,
2013-03-27 12:15:00,51.8,29.4,29.44,SSE,155,5.8,6.3,42,0.00,,---,0.00,VWS V14.00,2013-03-27 17:15:00,
2013-03-27 12:18:00,51.8,29.4,29.44,South,191,5.4,6.3,42,0.00,,---,0.00,VWS V14.00,2013-03-27 17:18:00,
2013-03-27 12:20:00,51.8,29.4,29.44,South,191,5.4,6.3,42,0.00,,---,0.00,VWS V14.00,2013-03-27 17:20:00,
2013-03-27 12:21:00,51.8,29.4,29.44,SSE,153,4.9,5.4,42,0.00,,---,0.00,VWS V14.00,2013-03-27 17:21:00,
2013-03-27 12:24:00,52.5,30.1,29.44,SSE,162,4.0,6.3,42,0.00,,---,0.00,VWS V14.00,2013-03-27 17:24:00,
2013-03-27 12:30:00,52.5,30.1,29.44,SSE,154,6.3,6.3,42,0.00,,---,0.00,VWS V14.00,2013-03-27 17:30:00,
2013-03-27 12:33:00,53.0,30.0,29.44,SSE,164,5.8,6.3,41,0.00,,---,0.00,VWS V14.00,2013-03-27 17:33:00,
2013-03-27 12:36:00,53.0,30.0,29.44,SSE,151,6.3,6.3,41,0.00,,---,0.00,VWS V14.00,2013-03-27 17:36:00,
2013-03-27 12:39:00,53.0,30.0,29.44,SSE,164,5.8,6.3,41,0.00,,---,0.00,VWS V14.00,2013-03-27 17:39:00,
2013-03-27 12:45:00,53.0,30.0,29.44,SSE,159,3.6,6.3,41,0.00,,---,0.00,VWS V14.00,2013-03-27 17:45:00,
2013-03-27 12:48:00,53.0,30.0,29.44,SSE,159,3.6,6.3,41,0.00,,---,0.00,VWS V14.00,2013-03-27 17:48:00,
2013-03-27 12:55:00,53.9,30.2,29.44,SSE,154,4.9,4.9,40,0.00,,---,0.00,VWS V14.00,2013-03-27 17:55:00,
2013-03-27 12:58:00,54.3,30.5,29.44,SSE,161,3.6,4.9,40,0.00,,---,0.00,VWS V14.00,2013-03-27 17:58:00,
2013-03-27 13:01:00,54.3,30.5,29.44,South,173,6.3,6.3,40,0.00,,---,0.00,VWS V14.00,2013-03-27 18:01:00,
2013-03-27 13:07:00,54.7,30.2,29.44,South,173,6.3,6.3,39,0.00,,---,0.00,VWS V14.00,2013-03-27 18:07:00,
2013-03-27 13:10:00,54.7,30.2,29.44,SSE,161,4.9,6.3,39,0.00,,---,0.00,VWS V14.00,2013-03-27 18:10:00,
2013-03-27 13:13:00,54.7,30.2,29.44,SSE,167,6.3,6.3,39,0.00,,---,0.00,VWS V14.00,2013-03-27 18:13:00,
2013-03-27 13:16:00,55.2,30.1,29.44,SSE,167,3.6,6.3,38,0.00,,---,0.00,VWS V14.00,2013-03-27 18:16:00,
2013-03-27 13:19:00,55.2,30.1,29.41,SSE,168,5.8,6.3,38,0.00,,---,0.00,VWS V14.00,2013-03-27 18:19:00,
2013-03-27 13:25:00,55.2,30.1,29.41,SSE,165,5.4,5.8,38,0.00,,---,0.00,VWS V14.00,2013-03-27 18:25:00,
2013-03-27 13:31:00,55.2,30.1,29.41,South,182,5.4,5.8,38,0.00,,---,0.00,VWS V14.00,2013-03-27 18:31:00,
2013-03-27 13:34:00,56.1,30.2,29.41,SSE,157,4.0,5.8,37,0.00,,---,0.00,VWS V14.00,2013-03-27 18:34:00,
2013-03-27 13:35:00,56.1,30.2,29.41,SSE,157,4.0,5.8,37,0.00,,---,0.00,VWS V14.00,2013-03-27 18:35:00,
2013-03-27 13:40:00,56.1,30.2,29.41,SSE,150,4.0,5.8,37,0.00,,---,0.00,VWS V14.00,2013-03-27 18:40:00,
2013-03-27 13:43:00,56.1,30.2,29.41,South,170,6.3,6.3,37,0.00,,---,0.00,VWS V14.00,2013-03-27 18:43:00,
2013-03-27 13:49:00,57.0,30.3,29.38,SSE,150,5.8,6.3,36,0.00,,---,0.00,VWS V14.00,2013-03-27 18:49:00,
2013-03-27 13:50:00,57.0,30.3,29.38,SSE,150,5.8,6.3,36,0.00,,---,0.00,VWS V14.00,2013-03-27 18:50:00,
2013-03-27 13:52:00,57.0,30.3,29.38,SSE,153,5.8,5.8,36,0.00,,---,0.00,VWS V14.00,2013-03-27 18:52:00,
2013-03-27 13:58:00,57.0,30.3,29.38,SSE,168,8.1,8.1,36,0.00,,---,0.00,VWS V14.00,2013-03-27 18:58:00,
2013-03-27 14:01:00,57.0,30.3,29.38,SSE,164,3.6,8.1,36,0.00,,---,0.00,VWS V14.00,2013-03-27 19:01:00,
2013-03-27 14:07:00,58.8,31.9,29.38,SSE,151,5.4,7.6,36,0.00,,---,0.00,VWS V14.00,2013-03-27 19:07:00,
2013-03-27 14:13:00,58.8,31.9,29.38,South,177,8.7,8.7,36,0.00,,---,0.00,VWS V14.00,2013-03-27 19:13:00,
2013-03-27 14:16:00,58.8,31.9,29.38,SSE,159,5.8,8.7,36,0.00,,---,0.00,VWS V14.00,2013-03-27 19:16:00,
2013-03-27 14:19:00,58.8,31.9,29.38,South,186,5.4,8.7,36,0.00,,---,0.00,VWS V14.00,2013-03-27 19:19:00,
2013-03-27 14:22:00,58.8,31.9,29.38,South,172,5.8,5.8,36,0.00,,---,0.00,VWS V14.00,2013-03-27 19:22:00,
2013-03-27 14:25:00,58.8,31.9,29.38,SSE,162,6.7,6.7,36,0.00,,---,0.00,VWS V14.00,2013-03-27 19:25:00,
2013-03-27 14:31:00,59.7,32.0,29.38,South,175,5.4,6.7,35,0.00,,---,0.00,VWS V14.00,2013-03-27 19:31:00,
2013-03-27 14:34:00,60.1,32.3,29.38,SSE,165,6.3,6.7,35,0.00,,---,0.00,VWS V14.00,2013-03-27 19:34:00,
2013-03-27 14:40:00,60.6,32.1,29.38,SSE,167,5.4,6.3,34,0.00,,---,0.00,VWS V14.00,2013-03-27 19:40:00,
2013-03-27 14:43:00,60.6,32.1,29.38,East,96,2.2,6.3,34,0.00,,---,0.00,VWS V14.00,2013-03-27 19:43:00,
2013-03-27 14:46:00,60.6,32.1,29.38,South,169,4.5,6.3,34,0.00,,---,0.00,VWS V14.00,2013-03-27 19:46:00,
2013-03-27 14:49:00,61.1,32.6,29.38,South,169,4.5,6.3,34,0.00,,---,0.00,VWS V14.00,2013-03-27 19:49:00,
2013-03-27 14:50:00,61.1,32.6,29.38,SE,145,3.6,6.3,34,0.00,,---,0.00,VWS V14.00,2013-03-27 19:50:00,
2013-03-27 14:55:00,61.1,32.6,29.38,SE,144,3.6,6.3,34,0.00,,---,0.00,VWS V14.00,2013-03-27 19:55:00,
2013-03-27 15:02:00,61.1,32.6,29.38,South,171,5.8,6.3,34,0.00,,---,0.00,VWS V14.00,2013-03-27 20:02:00,
2013-03-27 15:05:00,61.7,33.0,29.35,SSE,168,5.4,6.3,34,0.00,,---,0.00,VWS V14.00,2013-03-27 20:05:00,
2013-03-27 15:08:00,61.7,33.0,29.35,SE,140,3.1,5.4,34,0.00,,---,0.00,VWS V14.00,2013-03-27 20:08:00,
2013-03-27 15:11:00,61.7,33.0,29.35,SE,140,3.1,5.4,34,0.00,,---,0.00,VWS V14.00,2013-03-27 20:11:00,
2013-03-27 15:14:00,62.0,33.4,29.35,SSE,164,6.3,6.3,34,0.00,,---,0.00,VWS V14.00,2013-03-27 20:14:00,
2013-03-27 15:17:00,62.0,33.4,29.35,SSE,151,5.4,6.3,34,0.00,,---,0.00,VWS V14.00,2013-03-27 20:17:00,
2013-03-27 15:20:00,62.0,33.4,29.35,SE,145,6.3,6.3,34,0.00,,---,0.00,VWS V14.00,2013-03-27 20:20:00,
2013-03-27 15:23:00,62.4,32.9,29.35,SE,145,6.3,6.3,33,0.00,,---,0.00,VWS V14.00,2013-03-27 20:23:00,
2013-03-27 15:26:00,62.4,32.9,29.35,SE,145,6.3,6.3,33,0.00,,---,0.00,VWS V14.00,2013-03-27 20:26:00,
2013-03-27 15:29:00,62.4,32.9,29.35,SSE,167,5.4,6.3,33,0.00,,---,0.00,VWS V14.00,2013-03-27 20:29:00,
2013-03-27 15:32:00,61.9,33.2,29.35,South,171,5.4,6.3,34,0.00,,---,0.00,VWS V14.00,2013-03-27 20:32:00,
2013-03-27 15:35:00,61.9,33.2,29.35,SSE,161,4.0,6.3,34,0.00,,---,0.00,VWS V14.00,2013-03-27 20:35:00,
2013-03-27 15:44:00,61.9,33.2,29.35,SSE,162,6.3,8.1,34,0.00,,---,0.00,VWS V14.00,2013-03-27 20:44:00,
2013-03-27 15:47:00,60.6,31.4,29.35,South,177,6.3,8.1,33,0.00,,---,0.00,VWS V14.00,2013-03-27 20:47:00,
2013-03-27 15:50:00,60.6,31.4,29.35,ENE,73,3.6,8.1,33,0.00,,---,0.00,VWS V14.00,2013-03-27 20:50:00,
2013-03-27 15:53:00,60.6,31.4,29.35,SSE,151,4.0,4.9,33,0.00,,---,0.00,VWS V14.00,2013-03-27 20:53:00,
2013-03-27 15:56:00,61.0,31.7,29.35,NE,56,3.1,4.9,33,0.00,,---,0.00,VWS V14.00,2013-03-27 20:56:00,
2013-03-27 15:59:00,61.0,31.7,29.35,SE,139,4.0,4.9,33,0.00,,---,0.00,VWS V14.00,2013-03-27 20:59:00,
2013-03-27 16:02:00,61.0,31.7,29.35,SSE,153,4.0,4.9,33,0.00,,---,0.00,VWS V14.00,2013-03-27 21:02:00,
2013-03-27 16:05:00,61.1,31.8,29.35,South,176,3.6,4.9,33,0.00,,---,0.00,VWS V14.00,2013-03-27 21:05:00,
2013-03-27 16:11:00,60.8,31.5,29.32,SSE,164,5.4,6.3,33,0.00,,---,0.00,VWS V14.00,2013-03-27 21:11:00,
2013-03-27 16:14:00,60.8,31.5,29.32,SSE,164,5.4,6.3,33,0.00,,---,0.00,VWS V14.00,2013-03-27 21:14:00,
2013-03-27 16:17:00,60.8,31.5,29.32,ESE,109,3.1,6.3,33,0.00,,---,0.00,VWS V14.00,2013-03-27 21:17:00,
2013-03-27 16:20:00,60.8,31.5,29.32,ESE,109,3.1,6.3,33,0.00,,---,0.00,VWS V14.00,2013-03-27 21:20:00,
2013-03-27 16:30:00,59.7,30.6,29.32,SSE,157,3.6,5.4,33,0.00,,---,0.00,VWS V14.00,2013-03-27 21:30:00,
2013-03-27 16:33:00,59.7,30.6,29.32,NNE,33,2.7,5.4,33,0.00,,---,0.00,VWS V14.00,2013-03-27 21:33:00,
2013-03-27 16:35:00,59.7,30.6,29.32,East,96,3.6,5.4,33,0.00,,---,0.00,VWS V14.00,2013-03-27 21:35:00,
2013-03-27 16:42:00,59.2,29.4,29.32,South,171,3.6,3.6,32,0.00,,---,0.00,VWS V14.00,2013-03-27 21:42:00,
2013-03-27 16:45:00,59.2,29.4,29.32,SSE,160,4.9,4.9,32,0.00,,---,0.00,VWS V14.00,2013-03-27 21:45:00,
2013-03-27 16:48:00,58.8,29.0,29.32,SSE,149,5.4,5.4,32,0.00,,---,0.00,VWS V14.00,2013-03-27 21:48:00,
2013-03-27 16:50:00,58.8,29.0,29.32,SSE,149,5.4,5.4,32,0.00,,---,0.00,VWS V14.00,2013-03-27 21:50:00,
2013-03-27 16:57:00,58.4,28.7,29.32,SE,141,5.8,5.8,32,0.00,,---,0.00,VWS V14.00,2013-03-27 21:57:00,
2013-03-27 17:00:00,58.4,28.7,29.32,NE,49,3.1,5.8,32,0.00,,---,0.00,VWS V14.00,2013-03-27 22:00:00,
2013-03-27 17:03:00,58.4,28.7,29.32,East,87,5.4,5.8,32,0.00,,---,0.00,VWS V14.00,2013-03-27 22:03:00,
2013-03-27 17:09:00,58.1,29.1,29.32,SE,145,3.1,5.4,33,0.00,,---,0.00,VWS V14.00,2013-03-27 22:09:00,
2013-03-27 17:12:00,58.1,29.1,29.32,SE,145,3.1,5.4,33,0.00,,---,0.00,VWS V14.00,2013-03-27 22:12:00,
2013-03-27 17:15:00,57.7,28.8,29.32,East,100,3.1,5.4,33,0.00,,---,0.00,VWS V14.00,2013-03-27 22:15:00,
2013-03-27 17:18:00,57.7,28.8,29.32,East,100,3.1,5.4,33,0.00,,---,0.00,VWS V14.00,2013-03-27 22:18:00,
2013-03-27 17:20:00,57.5,28.7,29.32,South,183,4.0,5.4,33,0.00,,---,0.00,VWS V14.00,2013-03-27 22:20:00,
2013-03-27 17:28:00,57.4,28.5,29.32,ENE,76,4.0,5.8,33,0.00,,---,0.00,VWS V14.00,2013-03-27 22:28:00,
2013-03-27 17:31:00,57.2,28.4,29.32,ESE,121,5.8,5.8,33,0.00,,---,0.00,VWS V14.00,2013-03-27 22:31:00,
2013-03-27 17:34:00,57.2,28.4,29.32,SE,138,3.6,5.8,33,0.00,,---,0.00,VWS V14.00,2013-03-27 22:34:00,
2013-03-27 17:35:00,57.2,28.4,29.32,ESE,113,3.1,5.8,33,0.00,,---,0.00,VWS V14.00,2013-03-27 22:35:00,
2013-03-27 17:37:00,57.2,28.4,29.32,ENE,72,5.8,5.8,33,0.00,,---,0.00,VWS V14.00,2013-03-27 22:37:00,
2013-03-27 17:43:00,57.9,29.0,29.32,East,94,4.0,5.8,33,0.00,,---,0.00,VWS V14.00,2013-03-27 22:43:00,
2013-03-27 17:46:00,58.8,29.8,29.32,SSE,162,3.1,5.8,33,0.00,,---,0.00,VWS V14.00,2013-03-27 22:46:00,
2013-03-27 17:49:00,59.0,29.9,29.29,SSE,154,2.7,5.8,33,0.00,,---,0.00,VWS V14.00,2013-03-27 22:49:00,
2013-03-27 17:50:00,58.8,29.8,29.29,SSE,167,3.1,5.8,33,0.00,,---,0.00,VWS V14.00,2013-03-27 22:50:00,
2013-03-27 17:52:00,58.8,29.8,29.29,SSE,167,3.1,3.1,33,0.00,,---,0.00,VWS V14.00,2013-03-27 22:52:00,
2013-03-27 17:55:00,58.8,29.8,29.29,SE,146,2.7,3.1,33,0.00,,---,0.00,VWS V14.00,2013-03-27 22:55:00,
2013-03-27 17:58:00,58.8,29.8,29.29,South,169,6.3,6.3,33,0.00,,---,0.00,VWS V14.00,2013-03-27 22:58:00,
2013-03-27 18:04:00,58.6,29.6,29.32,South,171,8.7,8.7,33,0.00,,---,0.00,VWS V14.00,2013-03-27 23:04:00,
2013-03-27 18:10:00,57.7,29.6,29.32,SSE,166,8.3,8.3,34,0.00,,---,0.00,VWS V14.00,2013-03-27 23:10:00,
2013-03-27 18:13:00,57.2,29.1,29.32,SSW,192,7.6,8.3,34,0.00,,---,0.00,VWS V14.00,2013-03-27 23:13:00,
2013-03-27 18:16:00,56.8,29.5,29.32,SSE,160,7.2,8.7,35,0.00,,---,0.00,VWS V14.00,2013-03-27 23:16:00,
2013-03-27 18:20:00,56.8,29.5,29.32,SSE,154,8.1,8.7,35,0.00,,---,0.00,VWS V14.00,2013-03-27 23:20:00,
2013-03-27 18:22:00,56.1,28.8,29.32,SSE,161,6.3,8.1,35,0.00,,---,0.00,VWS V14.00,2013-03-27 23:22:00,
2013-03-27 18:28:00,56.1,28.8,29.32,SSE,160,5.8,8.1,35,0.00,,---,0.00,VWS V14.00,2013-03-27 23:28:00,
2013-03-27 18:35:00,55.4,28.2,29.29,SE,142,5.4,8.7,35,0.00,,---,0.00,VWS V14.00,2013-03-27 23:35:00,
2013-03-27 18:38:00,55.4,28.2,29.29,South,176,8.3,8.3,35,0.00,,---,0.00,VWS V14.00,2013-03-27 23:38:00,
2013-03-27 18:44:00,54.8,27.7,29.29,South,171,7.6,11.0,35,0.00,,---,0.00,VWS V14.00,2013-03-27 23:44:00,
2013-03-27 18:47:00,54.7,27.6,29.29,South,171,7.6,11.0,35,0.00,,---,0.00,VWS V14.00,2013-03-27 23:47:00,
2013-03-27 18:50:00,54.5,27.4,29.29,SE,145,7.6,11.0,35,0.00,,---,0.00,VWS V14.00,2013-03-27 23:50:00,
2013-03-27 18:53:00,54.5,27.4,29.29,South,170,8.3,8.3,35,0.00,,---,0.00,VWS V14.00,2013-03-27 23:53:00,
2013-03-27 18:56:00,54.3,27.2,29.29,SSE,152,7.6,8.3,35,0.00,,---,0.00,VWS V14.00,2013-03-27 23:56:00,
2013-03-27 18:59:00,54.3,27.2,29.29,SSE,153,6.3,8.3,35,0.00,,---,0.00,VWS V14.00,2013-03-27 23:59:00,
2013-03-27 19:02:00,53.9,26.9,29.29,SE,143,4.9,8.3,35,0.00,,---,0.00,VWS V14.00,2013-03-28 00:02:00,
2013-03-27 19:08:00,53.9,26.9,29.29,South,171,8.1,8.3,35,0.00,,---,0.00,VWS V14.00,2013-03-28 00:08:00,
2013-03-27 19:14:00,53.4,26.5,29.29,SSE,148,5.8,8.3,35,0.00,,---,0.00,VWS V14.00,2013-03-28 00:14:00,
2013-03-27 19:17:00,53.2,27.0,29.29,SE,146,8.1,8.3,36,0.00,,---,0.00,VWS V14.00,2013-03-28 00:17:00,
2013-03-27 19:20:00,53.2,27.0,29.29,SSE,157,6.3,8.3,36,0.00,,---,0.00,VWS V14.00,2013-03-28 00:20:00,
2013-03-27 19:23:00,52.9,26.7,29.29,South,172,5.4,6.3,36,0.00,,---,0.00,VWS V14.00,2013-03-28 00:23:00,
2013-03-27 19:26:00,52.9,26.7,29.29,SSE,159,6.3,8.1,36,0.00,,---,0.00,VWS V14.00,2013-03-28 00:26:00,
2013-03-27 19:29:00,52.5,26.3,29.29,SSE,163,6.3,8.1,36,0.00,,---,0.00,VWS V14.00,2013-03-28 00:29:00,
2013-03-27 19:32:00,52.5,26.3,29.29,SE,130,5.4,8.1,36,0.00,,---,0.00,VWS V14.00,2013-03-28 00:32:00,
2013-03-27 19:35:00,52.5,26.3,29.32,SSE,148,5.4,8.1,36,0.00,,---,0.00,VWS V14.00,2013-03-28 00:35:00,
2013-03-27 19:38:00,52.3,26.2,29.32,SSE,147,7.2,7.2,36,0.00,,---,0.00,VWS V14.00,2013-03-28 00:38:00,
2013-03-27 19:41:00,52.1,26.0,29.32,SSE,147,7.2,7.2,36,0.00,,---,0.00,VWS V14.00,2013-03-28 00:41:00,
2013-03-27 19:44:00,52.0,25.9,29.32,SSE,147,5.4,7.2,36,0.00,,---,0.00,VWS V14.00,2013-03-28 00:44:00,
2013-03-27 19:50:00,52.0,25.9,29.29,SSE,159,5.4,7.2,36,0.00,,---,0.00,VWS V14.00,2013-03-28 00:50:00,
2013-03-27 19:59:00,51.6,25.5,29.29,South,180,6.3,7.6,36,0.00,,---,0.00,VWS V14.00,2013-03-28 00:59:00,
2013-03-27 20:02:00,51.6,25.5,29.32,South,180,6.3,7.6,36,0.00,,---,0.00,VWS V14.00,2013-03-28 01:02:00,
2013-03-27 20:05:00,51.6,25.5,29.32,SSE,152,5.8,7.6,36,0.00,,---,0.00,VWS V14.00,2013-03-28 01:05:00,
2013-03-27 20:11:00,51.2,25.2,29.32,SSE,159,5.4,6.3,36,0.00,,---,0.00,VWS V14.00,2013-03-28 01:11:00,
2013-03-27 20:14:00,51.1,25.1,29.32,SSE,159,5.4,6.3,36,0.00,,---,0.00,VWS V14.00,2013-03-28 01:14:00,
2013-03-27 20:17:00,51.1,25.1,29.32,SSE,158,7.6,7.6,36,0.00,,---,0.00,VWS V14.00,2013-03-28 01:17:00,
2013-03-27 20:20:00,51.1,25.7,29.32,SSE,158,7.6,7.6,37,0.00,,---,0.00,VWS V14.00,2013-03-28 01:20:00,
2013-03-27 20:23:00,51.1,25.7,29.32,South,169,8.3,8.3,37,0.00,,---,0.00,VWS V14.00,2013-03-28 01:23:00,
2013-03-27 20:26:00,51.1,25.7,29.32,SSE,148,8.3,8.3,37,0.00,,---,0.00,VWS V14.00,2013-03-28 01:26:00,
2013-03-27 20:29:00,50.9,25.6,29.32,SSE,167,5.4,8.3,37,0.00,,---,0.00,VWS V14.00,2013-03-28 01:29:00,
2013-03-27 20:32:00,50.7,25.4,29.32,SSE,154,8.7,8.7,37,0.00,,---,0.00,VWS V14.00,2013-03-28 01:32:00,
2013-03-27 20:35:00,50.7,25.4,29.32,South,178,5.4,8.7,37,0.00,,---,0.00,VWS V14.00,2013-03-28 01:35:00,
2013-03-27 20:41:00,50.3,25.1,29.32,East,101,7.6,8.1,37,0.00,,---,0.00,VWS V14.00,2013-03-28 01:41:00,
2013-03-27 20:47:00,50.2,24.9,29.32,SSE,152,7.2,10.1,37,0.00,,---,0.00,VWS V14.00,2013-03-28 01:47:00,
2013-03-27 20:50:00,50.2,24.9,29.32,South,172,6.3,10.1,37,0.00,,---,0.00,VWS V14.00,2013-03-28 01:50:00,
2013-03-27 20:51:00,50.2,24.9,29.32,South,172,6.3,6.3,37,0.00,,---,0.00,VWS V14.00,2013-03-28 01:51:00,
2013-03-27 20:57:00,49.8,25.2,29.32,SSE,150,8.7,11.0,38,0.00,,---,0.00,VWS V14.00,2013-03-28 01:57:00,
2013-03-27 21:03:00,49.6,25.1,29.32,SSE,155,5.8,11.0,38,0.00,,---,0.00,VWS V14.00,2013-03-28 02:03:00,
2013-03-27 21:06:00,49.4,25.5,29.32,South,172,8.3,8.3,39,0.00,,---,0.00,VWS V14.00,2013-03-28 02:06:00,
2013-03-27 21:09:00,49.4,25.5,29.32,SSE,158,7.6,10.1,39,0.00,,---,0.00,VWS V14.00,2013-03-28 02:09:00,
2013-03-27 21:12:00,49.1,25.2,29.32,SSE,168,8.7,10.1,39,0.00,,---,0.00,VWS V14.00,2013-03-28 02:12:00,
2013-03-27 21:18:00,49.1,25.2,29.35,SSW,192,7.6,10.1,39,0.00,,---,0.00,VWS V14.00,2013-03-28 02:18:00,
2013-03-27 21:21:00,48.9,25.7,29.35,SSE,159,7.6,7.6,40,0.00,,---,0.00,VWS V14.00,2013-03-28 02:21:00,
2013-03-27 21:27:00,48.9,25.7,29.35,South,172,7.6,8.1,40,0.00,,---,0.00,VWS V14.00,2013-03-28 02:27:00,
2013-03-27 21:30:00,48.7,25.5,29.35,South,172,7.6,8.1,40,0.00,,---,0.00,VWS V14.00,2013-03-28 02:30:00,
2013-03-27 21:35:00,48.7,25.5,29.35,SSE,154,6.3,8.1,40,0.00,,---,0.00,VWS V14.00,2013-03-28 02:35:00,
2013-03-27 21:42:00,48.5,25.9,29.35,SSE,153,4.9,7.6,41,0.00,,---,0.00,VWS V14.00,2013-03-28 02:42:00,
2013-03-27 21:45:00,48.5,25.9,29.35,SSE,153,4.9,7.6,41,0.00,,---,0.00,VWS V14.00,2013-03-28 02:45:00,
2013-03-27 21:50:00,48.5,25.9,29.38,SSE,164,8.1,8.1,41,0.00,,---,0.00,VWS V14.00,2013-03-28 02:50:00,
2013-03-27 21:51:00,48.5,26.5,29.38,SSE,166,4.0,8.1,42,0.00,,---,0.00,VWS V14.00,2013-03-28 02:51:00,
2013-03-27 21:54:00,48.4,26.4,29.38,South,175,6.3,8.1,42,0.00,,---,0.00,VWS V14.00,2013-03-28 02:54:00,
2013-03-27 21:57:00,48.4,26.4,29.38,South,175,6.3,8.1,42,0.00,,---,0.00,VWS V14.00,2013-03-28 02:57:00,
2013-03-27 22:03:00,48.2,26.2,29.38,SSE,166,6.3,8.1,42,0.00,,---,0.00,VWS V14.00,2013-03-28 03:03:00,
2013-03-27 22:09:00,48.2,26.8,29.38,SSE,160,5.8,5.8,43,0.00,,---,0.00,VWS V14.00,2013-03-28 03:09:00,
2013-03-27 22:12:00,47.8,26.4,29.38,SSE,156,5.8,6.3,43,0.00,,---,0.00,VWS V14.00,2013-03-28 03:12:00,
2013-03-27 22:15:00,47.8,27.0,29.38,SSE,168,5.4,6.3,44,0.00,,---,0.00,VWS V14.00,2013-03-28 03:15:00,
2013-03-27 22:20:00,47.6,26.8,29.38,SSE,153,4.9,6.3,44,0.00,,---,0.00,VWS V14.00,2013-03-28 03:20:00,
2013-03-27 22:21:00,47.6,26.8,29.38,SSE,153,4.9,4.9,44,0.00,,---,0.00,VWS V14.00,2013-03-28 03:21:00,
2013-03-27 22:24:00,47.5,27.2,29.38,SSE,157,6.3,6.3,45,0.00,,---,0.00,VWS V14.00,2013-03-28 03:24:00,
2013-03-27 22:27:00,47.5,27.2,29.38,SSE,154,5.4,6.3,45,0.00,,---,0.00,VWS V14.00,2013-03-28 03:27:00,
2013-03-27 22:30:00,47.1,26.9,29.38,South,177,5.4,6.3,45,0.00,,---,0.00,VWS V14.00,2013-03-28 03:30:00,
2013-03-27 22:35:00,47.1,27.4,29.38,South,177,7.6,7.6,46,0.00,,---,0.00,VWS V14.00,2013-03-28 03:35:00,
2013-03-27 22:36:00,47.1,27.4,29.38,SSE,157,5.4,7.6,46,0.00,,---,0.00,VWS V14.00,2013-03-28 03:36:00,
2013-03-27 22:39:00,46.9,27.2,29.38,SSE,168,5.8,7.6,46,0.00,,---,0.00,VWS V14.00,2013-03-28 03:39:00,
2013-03-27 22:45:00,46.7,27.1,29.38,SE,140,4.9,7.6,46,0.00,,---,0.00,VWS V14.00,2013-03-28 03:45:00,
2013-03-27 22:50:00,46.6,26.9,29.38,East,95,4.0,7.6,46,0.00,,---,0.00,VWS V14.00,2013-03-28 03:50:00,
2013-03-27 22:51:00,46.6,26.9,29.38,East,95,4.0,4.0,46,0.00,,---,0.00,VWS V14.00,2013-03-28 03:51:00,
2013-03-27 22:57:00,46.4,27.3,29.38,SSE,153,4.9,5.4,47,0.00,,---,0.00,VWS V14.00,2013-03-28 03:57:00,
2013-03-27 23:00:00,46.4,27.3,29.38,SE,127,6.3,7.2,47,0.00,,---,0.00,VWS V14.00,2013-03-28 04:00:00,
2013-03-27 23:03:00,46.2,27.1,29.38,SE,128,5.8,7.6,47,0.00,,---,0.00,VWS V14.00,2013-03-28 04:03:00,
2013-03-27 23:06:00,46.2,27.1,29.38,SE,141,5.8,6.3,47,0.00,,---,0.00,VWS V14.00,2013-03-28 04:06:00,
2013-03-27 23:09:00,46.0,27.4,29.38,SE,141,5.8,6.3,48,0.00,,---,0.00,VWS V14.00,2013-03-28 04:09:00,
2013-03-27 23:12:00,46.0,27.4,29.38,SE,141,5.8,6.3,48,0.00,,---,0.00,VWS V14.00,2013-03-28 04:12:00,
2013-03-27 23:15:00,46.0,27.4,29.38,SSE,160,8.1,8.1,48,0.00,,---,0.00,VWS V14.00,2013-03-28 04:15:00,
2013-03-27 23:18:00,46.0,27.4,29.38,SSE,160,8.1,8.1,48,0.00,,---,0.00,VWS V14.00,2013-03-28 04:18:00,
2013-03-27 23:21:00,46.0,27.4,29.38,SSE,155,4.9,8.1,48,0.00,,---,0.00,VWS V14.00,2013-03-28 04:21:00,
2013-03-27 23:24:00,46.0,27.4,29.38,SSE,166,4.9,8.1,48,0.00,,---,0.00,VWS V14.00,2013-03-28 04:24:00,
2013-03-27 23:30:00,46.2,27.6,29.38,SSE,157,6.3,8.1,48,0.00,,---,0.00,VWS V14.00,2013-03-28 04:30:00,
2013-03-27 23:33:00,46.2,27.6,29.38,SSE,167,4.9,8.1,48,0.00,,---,0.00,VWS V14.00,2013-03-28 04:33:00,
2013-03-27 23:36:00,46.2,27.6,29.38,South,172,5.8,5.8,48,0.00,,---,0.00,VWS V14.00,2013-03-28 04:36:00,
2013-03-27 23:42:00,46.4,27.8,29.38,SE,146,5.8,5.8,48,0.00,,---,0.00,VWS V14.00,2013-03-28 04:42:00,
2013-03-27 23:45:00,46.4,27.8,29.38,South,171,5.4,5.8,48,0.00,,---,0.00,VWS V14.00,2013-03-28 04:45:00,
2013-03-27 23:49:00,46.4,27.8,29.38,SE,145,5.8,5.8,48,0.00,,---,0.00,VWS V14.00,2013-03-28 04:49:00,
2013-03-27 23:50:00,46.4,27.8,29.38,SE,145,5.8,5.8,48,0.00,,---,0.00,VWS V14.00,2013-03-28 04:50:00,
2013-03-27 23:55:00,46.4,27.8,29.38,South,181,5.4,5.8,48,0.00,,---,0.00,VWS V14.00,2013-03-28 04:55:00,
2013-03-27 23:58:00,46.4,27.8,29.38,SSW,205,5.8,5.8,48,0.00,,---,0.00,VWS V14.00,2013-03-28 04:58:00,